STARLINK-35614, 66164

Orbit data source: Space-Track

STARLINK-35614, 66164 is a payload satellite owned by SpaceX/Seattle (US) in LEO that was launched on Sat, 25 Oct 2025 UTC via an FALCON 9 launch vehicle from the Air Force Eastern Test Range (AFETR). Payload-class satellites include a variety of spacecraft equipped with specific instruments for various scientific and technological missions. These include communications satellites like Starlink; space stations such as the ISS; scientific satellites like the Hubble; Earth observation satellites from companies like Planet Labs, Umbra, and HawkEye 360; GPS; miniature CubeSats for education and research; and military/defense satellites.

Loading next visibility...
Identifier
66164, 2025-240U
Orbit
LEO
Country
Flag of USUS
Related business
Manufacturer
SpaceX/Seattle
Mission
Operational Commercial Communications
Bus & Motor
STARLINK V2MO, Unknown motor
Mass
575 kg wet, ~530 kg dry
Launch date (UTC)
2025-10-25 (8 months ago)
Launch vehicle
FALCON 9
Launch site
Air Force Eastern Test Range (AFETR)
Object type
Payload
Rocket body
Debris
Shape & HBR
Box + 2 Pan, 17.7 m
Radar Cross Section
36.964 m², Large (>1 m²)

Expand to show TLE details & history
Last TLE update: 11 hours ago

TLE from 11 hours ago
0 STARLINK-35614
1 66164U 25240U   26171.40078678  .00024619  00000-0  73735-3 0  9993
2 66164  53.1582 304.3294 0001213 106.1573 253.9563 15.34401565 37731
Epoch: 2026-06-20T09:37Z
TLE epoch observation values (Epoch: 2026-06-20T09:37:07.977Z)
Latitude
-0.00005°
Longitude
-108.56982°
Altitude
463.829 km
Speed
7.636 km/s
True Right ascension
20h 17m 19s
True Declination
0° 00' 00"
Sunlit
Object was in full shadow at epoch
Visualization orbit readout
Latitude
Unknown
Longitude
Unknown
Altitude
Unknown
Speed
Unknown
Apparent Right ascension
Unknown
Apparent Declination
Unknown
Sunlit
N/A
Visualization observer readout
Local Sidereal Time
07:17:46
Azimuth
Unknown
Elevation
Unknown
Doppler factor
Unknown
Orbital elements
Apogee altitude
463.786 km
Perigee altitude
462.126 km
Semi-major axis
6,841.093 km
Eccentricity
0.00012
Inclination
53.1582°
RAAN
304.3294°
Arg. of periapsis
106.1573°
True anomaly
253.94294°
Mean anomaly
253.9563°
Eccentric anomaly
253.94962°
Mean motion
3.83579 °/min
Orbital period
93.85 mins
BSTAR
0.00073735
Loading maneuver chart data...
Computing Atmospheric mass density...
Loading historical data...
Loading historical data...
Loading historical data...
Loading historical data...
Loading historical data...
Loading historical data...
Loading historical data...

Documentation

Showing up to 5 results
|